Location: Newark
(49.8348°N, 24.0280°E)
Time: 01:58:11
(UTC+00:00)

deb Explorer IX - Pass Details

Date: 31 January 2020
Orbit: 549 x 1099 km, 38.8° (Epoch: 25 February)

Event Time Altitude Azimuth Distance (km) Brightness Sun altitude
Rises 17:13:27 0° 211° (SSW) 3,405 ? -19.0°
Reaches altitude 10° 17:16:39 10° 193° (SSW) 2,578 ? -19.5°
Maximum altitude 17:20:44 18° 152° (SSE) 2,159 ? -20.1°
Enters shadow 17:21:52 18° 139° (SE) 2,230 ? -20.3°
